Regional Weather Roundup
Issued by NWS

Home | Current Version | Previous Version | Text Only | Print | Product List | Glossary On
Versions: 1 2 3 4 5 6 7 8 9 10 11 12 13 14 15 16 17 18 19 20 21 22 23 24 25 26 27 28 29 30 31 32 33 34 35 36 37 38 39 40 41 42 43 44 45 46 47 48 49 50
776
ASUS44 KLIX 281810
RWRLA
LOUISIANA WEATHER ROUNDUP
NATIONAL WEATHER SERVICE NEW ORLEANS LA
1200 PM CST FRI NOV 28 2014

NOTE: "FAIR" INDICATES FEW OR NO CLOUDS BELOW 12,000 FEET WITH NO
      SIGNIFICANT WEATHER AND/OR OBSTRUCTIONS TO VISIBILITY.
      SKY/WX - SKY CONDITION AND SIGNIFICANT WEATHER.
      TMP - AIR TEMPERATURE.    DP   - DEWPOINT TEMPERATURE.
      RH  - RELATIVE HUMIDITY.  PRES - PRESSURE.
      HX  - HEAT INDEX.         WCI  - WIND CHILL INDEX.

*  THESE STATIONS ARE NOT NWS OR FAA STATIONS AND ARE NOT UNDER
   NWS QUALITY CONTROL.

LAZ040-048-061>063-065-066-069-281900-
SOUTHEAST LOUISIANA

CITY           SKY/WX    TMP DP  RH WIND       PRES   REMARKS
N.O. AUDUBON   NOT AVBL
N.O. INTL ARPT MOSUNNY   58  38  47 VRB6      30.38F
6HR MIN TEMP:  43; 6HR MAX TEMP:  58;

N.O. LAKEFRONT SUNNY     55  39  54 E10       30.39F
6HR MIN TEMP:  45; 6HR MAX TEMP:  55;

N.O. DOWNTOWN* FAIR      55  37  50 NE3       30.39F
6HR MIN TEMP:  43; 6HR MAX TEMP:  55;

SLIDELL        SUNNY     56  29  35 S7        30.38F
6HR MIN TEMP:  31; 6HR MAX TEMP:  56;

BATON ROUGE    SUNNY     58  31  35 S9        30.37F
6HR MIN TEMP:  33; 6HR MAX TEMP:  58;

BOOTHVILLE     SUNNY     58  47  66 NE9       30.38F
6HR MIN TEMP:  50; 6HR MAX TEMP:  58;

BELLE CHASSE   SUNNY     58  38  47 SE8       30.38F
6HR MIN TEMP:  35; 6HR MAX TEMP:  59;

BOGALUSA*        N/A     57  27  31 CALM      30.39F
6HR MIN TEMP:  31; 6HR MAX TEMP:  57;

NEW ROADS*     FAIR      57  32  39 SE6       30.36F
6HR MIN TEMP:  36; 6HR MAX TEMP:  57;

GONZALES*      FAIR      57  34  42 CALM      30.37F
6HR MIN TEMP:  33; 6HR MAX TEMP:  58;

HAMMOND*       SUNNY     59  25  27 S7        30.39F
HOUMA*         SUNNY     61  43  51 NE3       30.37F
PORT FOURCHON* CLEAR     59  46  63 E12G17    30.39F

$$

LAZ041-044-053-054-281900-
SOUTHWEST LOUISIANA

CITY           SKY/WX    TMP DP  RH WIND       PRES   REMARKS
LAKE CHARLES   SUNNY     62  48  60 S9        30.33F
6HR MIN TEMP:  37; 6HR MAX TEMP:  62;

LAFAYETTE      SUNNY     59  36  42 SE6       30.36F
6HR MIN TEMP:  37; 6HR MAX TEMP:  59;

PATTERSON      SUNNY     61  39  44 E6        30.39
6HR MIN TEMP:  37; 6HR MAX TEMP:  61;

SALT POINT       N/A     63  45  51 E7        30.35F
6HR MIN TEMP:  43; 6HR MAX TEMP:  63;

NEW IBERIA     SUNNY     60  37  42 S7        30.36F
6HR MIN TEMP:  38; 6HR MAX TEMP:  61;

CHENAULT AIRPK SUNNY     61  46  59 SE8       30.34F

$$

LAZ027-028-281900-
CENTRAL LOUISIANA

CITY           SKY/WX    TMP DP  RH WIND       PRES   REMARKS
FORT POLK      SUNNY     59  42  54 S9        30.31F
6HR MIN TEMP:  36; 6HR MAX TEMP:  59;

ALEXANDRIA INT SUNNY     55  36  48 E7        30.32F
6HR MIN TEMP:  32; 6HR MAX TEMP:  55;

ALEXANDRIA     SUNNY     58  35  42 SE8       30.34F
6HR MIN TEMP:  29; 6HR MAX TEMP:  58;


$$

LAZ001-002-281900-
NORTHWEST LOUISIANA

CITY           SKY/WX    TMP DP  RH WIND       PRES   REMARKS
SHREVEPORT     SUNNY     59  36  42 S10       30.26F
6HR MIN TEMP:  34; 6HR MAX TEMP:  59;

BARKSDALE AFB  SUNNY     57  35  44 SE12      30.28F
6HR MIN TEMP:  32; 6HR MAX TEMP:  57;

DTN SHREVEPORT SUNNY     57  35  43 S13       30.28F
6HR MIN TEMP:  35; 6HR MAX TEMP:  57;


$$

LAZ014-016-281900-
NORTHEAST LOUISIANA

CITY           SKY/WX    TMP DP  RH WIND       PRES   REMARKS
MONROE         SUNNY     55  35  47 S7        30.33F
6HR MIN TEMP:  28; 6HR MAX TEMP:  55;

TALLULAH       SUNNY     56  29  35 S12       30.35F
6HR MIN TEMP:  28; 6HR MAX TEMP:  56;


$$




USA.gov is the U.S. government's official web portal to all federal, state and local government web resources and services.